Flag for India Weather past 2 weeks in Jalandhar, Punjab, India

Now
91 °F

Haze.


Feels Like: 108 °F
Forecast: 78 / 100 °F
Wind: No wind

Location: Amritsar Airport

Current Time: Aug 29, 2015 at 7:12:15 PM

Latest Report: Aug 29, 2015 at 6:30 PM


Visibility: 3 mi

Pressure: 29.56 "Hg

Humidity: 67%

Dew point: 79 °F

Location of JalandharLocation

Historic Weather in Jalandhar — Graph

°F

Jalandhar temperature yesterday

Maximum temperature yesterday: 93 °F (at 3:30 PM)
Minimum temperature yesterday: 75 °F (at 4:00 AM)
Average temperature yesterday: 84 °F

Past Weeks' High & Low Weather Summary

 TemperatureHumidityPressure
High97 °F (Aug 27, 1:00 PM)100% (Aug 14, 11:00 PM)29.71 "Hg (Aug 14, 11:00 PM)
Low75 °F (Aug 21, 5:00 PM)44% (Aug 29, 1:30 PM)29.53 "Hg (Aug 20, 5:00 PM)
Average85 °F83%29.61 "Hg
* Reported Aug 14 4:30 PM — Aug 29 5:00 PM, Jalandhar, Weather by CustomWeather, © 2015

Note: Actual official high and low records may vary slightly from our data, if they occured in-between our weather recording intervals... More about our weather records

Advertising

Jalandhar weather history for previous 24 hours

 ConditionsComfort  
Time TempWeatherWind HumidityBarometerVisibility
5:00 PM
Sat, Aug 29
93 °FHaze.3 mph56%29.59 "Hg3 mi
4:30 PM95 °FHaze.3 mph53%29.59 "Hg3 mi
3:30 PM95 °FPassing clouds.5 mph56%29.59 "Hg4 mi
3:00 PM95 °FPassing clouds.3 mph53%29.62 "Hg4 mi
2:30 PM95 °FClear.2 mph53%29.62 "Hg4 mi
1:30 PM97 °FClear.3 mph44%29.65 "Hg4 mi
12:30 PM93 °FHaze.2 mph56%29.65 "Hg3 mi
11:30 AM93 °FHaze.3 mph59%29.65 "Hg3 mi
11:00 AM93 °FHaze.2 mph56%29.65 "Hg2 mi
10:30 AM91 °FHaze.2 mph56%29.65 "Hg2 mi
10:00 AM90 °FHaze.1 mph71%29.65 "Hg2 mi
9:00 AM86 °FFog.No wind79%29.65 "Hg2 mi
8:30 AM86 °FFog.No wind84%29.65 "Hg2 mi
8:00 AM84 °FFog.No wind89%29.65 "Hg1 mi
7:30 AM82 °FFog.No wind94%29.62 "Hg1 mi
7:00 AM81 °FFog.No wind100%29.62 "Hg1 mi
6:30 AM79 °FFog.No wind100%29.62 "Hg1 mi
6:00 AM81 °FFog.No wind94%29.62 "Hg1 mi
5:30 AM81 °FFog.No wind94%29.62 "Hg1 mi
4:30 AM81 °FFog.No wind94%29.62 "Hg2 mi
3:30 AM81 °FFog.No wind94%29.62 "Hg2 mi
2:30 AM82 °FFog.No wind100%29.62 "Hg2 mi
2:00 AM82 °FFog.No wind94%29.62 "Hg2 mi
1:30 AM82 °FFog.No wind94%29.62 "Hg2 mi
1:00 AM82 °FFog.No wind94%29.62 "Hg2 mi
12:30 AM82 °FFog.No wind89%29.65 "Hg2 mi
11:30 PM
Fri, Aug 28
82 °FFog.No wind94%29.65 "Hg2 mi
11:00 PM82 °FFog.No wind94%29.65 "Hg2 mi
10:30 PM84 °FFog.No wind89%29.65 "Hg2 mi
10:00 PM84 °FFog.No wind89%29.65 "Hg2 mi
9:30 PM84 °FFog.No wind89%29.65 "Hg2 mi
9:00 PM86 °FFog.No wind84%29.65 "Hg2 mi
8:30 PM86 °FFog.No wind84%29.62 "Hg2 mi
8:00 PM86 °FFog.No wind84%29.62 "Hg3 mi
7:30 PM86 °FClear.No wind79%29.62 "Hg4 mi
7:00 PM88 °FClear.No wind70%29.62 "Hg4 mi
Weather by CustomWeather, © 2015

See weather overviewHow to use our weather pages